owner,sensor,date,latitude,longitude,vertical_datum,wind_speed,wind_to_direction,wind_speed_of_gust,qcFlag 
WAVCIS,ioos:station:WAVCIS:CSI09:1,2009-05-01T00:00:00Z,29.1015,-89.9782,0.0,7.86,132.0,,'11111222,11111222,99999999' 
WAVCIS,ioos:station:WAVCIS:CSI09:1,2009-05-01T01:00:00Z,29.1015,-89.9782,0.0,8.34,130.0,,'11111222,11111222,99999999' 
WAVCIS,ioos:station:WAVCIS:CSI09:1,2009-05-01T02:00:00Z,29.1015,-89.9782,0.0,8.17,129.0,,'11111222,11111222,99999999' 
WAVCIS,ioos:station:WAVCIS:CSI09:1,2009-05-01T03:00:00Z,29.1015,-89.9782,0.0,8.39,130.0,,'11111222,11111222,99999999' 
WAVCIS,ioos:station:WAVCIS:CSI09:1,2009-05-01T04:00:00Z,29.1015,-89.9782,0.0,8.07,133.0,,'11111222,11111222,99999999' 
WAVCIS,ioos:station:WAVCIS:CSI09:1,2009-05-01T05:00:00Z,29.1015,-89.9782,0.0,7.6,141.0,,'11111222,11111222,99999999' 
WAVCIS,ioos:station:WAVCIS:CSI09:1,2009-05-01T06:00:00Z,29.1015,-89.9782,0.0,6.104,148.0,,'11111222,11111222,99999999' 
WAVCIS,ioos:station:WAVCIS:CSI09:1,2009-05-01T07:00:00Z,29.1015,-89.9782,0.0,6.391,145.0,,'11111222,11111222,99999999' 
WAVCIS,ioos:station:WAVCIS:CSI09:1,2009-05-01T08:00:00Z,29.1015,-89.9782,0.0,6.442,148.0,,'11111222,11111222,99999999' 
WAVCIS,ioos:station:WAVCIS:CSI09:1,2009-05-01T09:00:00Z,29.1015,-89.9782,0.0,6.284,147.0,,'11111222,11111222,99999999' 
WAVCIS,ioos:station:WAVCIS:CSI09:1,2009-05-01T10:00:00Z,29.1015,-89.9782,0.0,5.19,151.0,,'11111222,11111222,99999999' 
WAVCIS,ioos:station:WAVCIS:CSI09:1,2009-05-01T11:00:00Z,29.1015,-89.9782,0.0,5.017,142.0,,'11111222,11111222,99999999' 
WAVCIS,ioos:station:WAVCIS:CSI09:1,2009-05-01T12:00:00Z,29.1015,-89.9782,0.0,4.607,134.0,,'11111222,11111222,99999999' 
WAVCIS,ioos:station:WAVCIS:CSI09:1,2009-05-01T13:00:00Z,29.1015,-89.9782,0.0,5.021,141.0,,'11111222,11111222,99999999' 
WAVCIS,ioos:station:WAVCIS:CSI09:1,2009-05-01T14:00:00Z,29.1015,-89.9782,0.0,4.011,146.0,,'11111222,11111222,99999999' 
WAVCIS,ioos:station:WAVCIS:CSI09:1,2009-05-01T15:00:00Z,29.1015,-89.9782,0.0,3.597,138.0,,'11111222,11111222,99999999' 
WAVCIS,ioos:station:WAVCIS:CSI09:1,2009-05-01T16:00:00Z,29.1015,-89.9782,0.0,3.417,139.0,,'11111222,11111222,99999999' 
WAVCIS,ioos:station:WAVCIS:CSI09:1,2009-05-01T17:00:00Z,29.1015,-89.9782,0.0,4.166,139.0,,'11111222,11111222,99999999' 
WAVCIS,ioos:station:WAVCIS:CSI09:1,2009-05-01T18:00:00Z,29.1015,-89.9782,0.0,3.988,145.0,,'11111222,11111222,99999999' 
WAVCIS,ioos:station:WAVCIS:CSI09:1,2009-05-01T19:00:00Z,29.1015,-89.9782,0.0,4.152,149.0,,'11111222,11111222,99999999' 
WAVCIS,ioos:station:WAVCIS:CSI09:1,2009-05-01T20:00:00Z,29.1015,-89.9782,0.0,4.143,155.0,,'11111222,11111222,99999999' 
WAVCIS,ioos:station:WAVCIS:CSI09:1,2009-05-01T21:00:00Z,29.1015,-89.9782,0.0,5.238,152.0,,'11111222,11111222,99999999' 
WAVCIS,ioos:station:WAVCIS:CSI09:1,2009-05-01T22:00:00Z,29.1015,-89.9782,0.0,5.153,158.0,,'11111222,11111222,99999999' 
WAVCIS,ioos:station:WAVCIS:CSI09:1,2009-05-01T23:00:00Z,29.1015,-89.9782,0.0,5.148,160.0,,'11111222,11111222,99999999' 
WAVCIS,ioos:station:WAVCIS:CSI09:1,2009-05-02T00:00:00Z,29.1015,-89.9782,0.0,6.209,153.0,,'11111222,11111222,99999999' 
WAVCIS,ioos:station:WAVCIS:CSI09:1,2009-05-02T01:00:00Z,29.1015,-89.9782,0.0,7.13,150.0,,'11111222,11111222,99999999' 
WAVCIS,ioos:station:WAVCIS:CSI09:1,2009-05-02T02:00:00Z,29.1015,-89.9782,0.0,7.1,149.0,,'11111222,11111222,99999999' 
WAVCIS,ioos:station:WAVCIS:CSI09:1,2009-05-02T03:00:00Z,29.1015,-89.9782,0.0,7.47,154.0,,'11111222,11111222,99999999' 
WAVCIS,ioos:station:WAVCIS:CSI09:1,2009-05-02T04:00:00Z,29.1015,-89.9782,0.0,6.486,153.0,,'11111222,11111222,99999999' 
WAVCIS,ioos:station:WAVCIS:CSI09:1,2009-05-02T05:00:00Z,29.1015,-89.9782,0.0,6.966,159.0,,'11111222,11111222,99999999' 
WAVCIS,ioos:station:WAVCIS:CSI09:1,2009-05-02T06:00:00Z,29.1015,-89.9782,0.0,7.02,161.0,,'11111222,11111222,99999999' 
WAVCIS,ioos:station:WAVCIS:CSI09:1,2009-05-02T07:00:00Z,29.1015,-89.9782,0.0,6.839,162.0,,'11111222,11111222,99999999' 
WAVCIS,ioos:station:WAVCIS:CSI09:1,2009-05-02T08:00:00Z,29.1015,-89.9782,0.0,6.565,170.0,,'11111222,11111222,99999999' 
WAVCIS,ioos:station:WAVCIS:CSI09:1,2009-05-02T09:00:00Z,29.1015,-89.9782,0.0,5.318,170.0,,'11111222,11111222,99999999' 
WAVCIS,ioos:station:WAVCIS:CSI09:1,2009-05-02T10:00:00Z,29.1015,-89.9782,0.0,4.843,172.0,,'11111222,11111222,99999999' 
WAVCIS,ioos:station:WAVCIS:CSI09:1,2009-05-02T11:00:00Z,29.1015,-89.9782,0.0,5.541,170.0,,'11111222,11111222,99999999' 
WAVCIS,ioos:station:WAVCIS:CSI09:1,2009-05-02T12:00:00Z,29.1015,-89.9782,0.0,3.444,176.0,,'11111222,11111222,99999999' 
WAVCIS,ioos:station:WAVCIS:CSI09:1,2009-05-02T13:00:00Z,29.1015,-89.9782,0.0,4.457,169.0,,'11111222,11111222,99999999' 
WAVCIS,ioos:station:WAVCIS:CSI09:1,2009-05-02T14:00:00Z,29.1015,-89.9782,0.0,6.539,169.0,,'11111222,11111222,99999999' 
WAVCIS,ioos:station:WAVCIS:CSI09:1,2009-05-02T15:00:00Z,29.1015,-89.9782,0.0,6.06,171.0,,'11111222,11111222,99999999' 
WAVCIS,ioos:station:WAVCIS:CSI09:1,2009-05-02T16:00:00Z,29.1015,-89.9782,0.0,5.745,169.0,,'11111222,11111222,99999999' 
WAVCIS,ioos:station:WAVCIS:CSI09:1,2009-05-02T17:00:00Z,29.1015,-89.9782,0.0,6.654,169.0,,'11111222,11111222,99999999' 
WAVCIS,ioos:station:WAVCIS:CSI09:1,2009-05-02T18:00:00Z,29.1015,-89.9782,0.0,6.143,158.0,,'11111222,11111222,99999999' 
WAVCIS,ioos:station:WAVCIS:CSI09:1,2009-05-02T19:00:00Z,29.1015,-89.9782,0.0,6.248,163.0,,'11111222,11111222,99999999' 
WAVCIS,ioos:station:WAVCIS:CSI09:1,2009-05-02T20:00:00Z,29.1015,-89.9782,0.0,6.888,165.0,,'11111222,11111222,99999999' 
WAVCIS,ioos:station:WAVCIS:CSI09:1,2009-05-02T21:00:00Z,29.1015,-89.9782,0.0,6.994,160.0,,'11111222,11111222,99999999' 
WAVCIS,ioos:station:WAVCIS:CSI09:1,2009-05-02T22:00:00Z,29.1015,-89.9782,0.0,6.737,163.0,,'11111222,11111222,99999999' 
WAVCIS,ioos:station:WAVCIS:CSI09:1,2009-05-02T23:00:00Z,29.1015,-89.9782,0.0,6.576,156.0,,'11111222,11111222,99999999' 
WAVCIS,ioos:station:WAVCIS:CSI09:1,2009-05-03T00:00:00Z,29.1015,-89.9782,0.0,7.44,159.0,,'11111222,11111222,99999999' 
WAVCIS,ioos:station:WAVCIS:CSI09:1,2009-05-03T01:00:00Z,29.1015,-89.9782,0.0,7.62,164.0,,'11111222,11111222,99999999' 
WAVCIS,ioos:station:WAVCIS:CSI09:1,2009-05-03T02:00:00Z,29.1015,-89.9782,0.0,9.03,163.0,,'11111222,11111222,99999999' 
WAVCIS,ioos:station:WAVCIS:CSI09:1,2009-05-03T03:00:00Z,29.1015,-89.9782,0.0,8.99,162.0,,'11111222,11111222,99999999' 
WAVCIS,ioos:station:WAVCIS:CSI09:1,2009-05-03T04:00:00Z,29.1015,-89.9782,0.0,9.95,161.0,,'11111222,11111222,99999999' 
WAVCIS,ioos:station:WAVCIS:CSI09:1,2009-05-03T05:00:00Z,29.1015,-89.9782,0.0,10.07,164.0,,'11111222,11111222,99999999' 
WAVCIS,ioos:station:WAVCIS:CSI09:1,2009-05-03T06:00:00Z,29.1015,-89.9782,0.0,9.59,169.0,,'11111222,11111222,99999999' 
WAVCIS,ioos:station:WAVCIS:CSI09:1,2009-05-03T07:00:00Z,29.1015,-89.9782,0.0,7.79,169.0,,'11111222,11111222,99999999' 
WAVCIS,ioos:station:WAVCIS:CSI09:1,2009-05-03T08:00:00Z,29.1015,-89.9782,0.0,7.86,163.0,,'11111222,11111222,99999999' 
WAVCIS,ioos:station:WAVCIS:CSI09:1,2009-05-03T09:00:00Z,29.1015,-89.9782,0.0,6.98,161.0,,'11111222,11111222,99999999' 
WAVCIS,ioos:station:WAVCIS:CSI09:1,2009-05-03T10:00:00Z,29.1015,-89.9782,0.0,7.81,159.0,,'11111222,11111222,99999999' 
WAVCIS,ioos:station:WAVCIS:CSI09:1,2009-05-03T11:00:00Z,29.1015,-89.9782,0.0,9.04,160.0,,'11111222,11111222,99999999' 
WAVCIS,ioos:station:WAVCIS:CSI09:1,2009-05-03T12:00:00Z,29.1015,-89.9782,0.0,8.55,167.0,,'11111222,11111222,99999999' 
WAVCIS,ioos:station:WAVCIS:CSI09:1,2009-05-03T13:00:00Z,29.1015,-89.9782,0.0,8.91,168.0,,'11111222,11111222,99999999' 
WAVCIS,ioos:station:WAVCIS:CSI09:1,2009-05-03T14:00:00Z,29.1015,-89.9782,0.0,10.23,164.0,,'11111222,11111222,99999999' 
WAVCIS,ioos:station:WAVCIS:CSI09:1,2009-05-03T15:00:00Z,29.1015,-89.9782,0.0,11.11,169.0,,'11111222,11111222,99999999' 
WAVCIS,ioos:station:WAVCIS:CSI09:1,2009-05-03T16:00:00Z,29.1015,-89.9782,0.0,10.07,171.0,,'11111222,11111222,99999999' 
WAVCIS,ioos:station:WAVCIS:CSI09:1,2009-05-03T17:00:00Z,29.1015,-89.9782,0.0,8.85,172.0,,'11111222,11111222,99999999' 
WAVCIS,ioos:station:WAVCIS:CSI09:1,2009-05-03T18:00:00Z,29.1015,-89.9782,0.0,8.11,174.0,,'11111222,11111222,99999999' 
WAVCIS,ioos:station:WAVCIS:CSI09:1,2009-05-03T19:00:00Z,29.1015,-89.9782,0.0,7.32,171.0,,'11111222,11111222,99999999' 
WAVCIS,ioos:station:WAVCIS:CSI09:1,2009-05-03T20:00:00Z,29.1015,-89.9782,0.0,6.354,166.0,,'11111222,11111222,99999999' 
WAVCIS,ioos:station:WAVCIS:CSI09:1,2009-05-03T21:00:00Z,29.1015,-89.9782,0.0,6.174,156.0,,'11111222,11111222,99999999' 
WAVCIS,ioos:station:WAVCIS:CSI09:1,2009-05-03T22:00:00Z,29.1015,-89.9782,0.0,5.845,147.0,,'11111222,11111222,99999999' 
WAVCIS,ioos:station:WAVCIS:CSI09:1,2009-05-03T23:00:00Z,29.1015,-89.9782,0.0,5.243,129.0,,'11111222,11111222,99999999' 
WAVCIS,ioos:station:WAVCIS:CSI09:1,2009-05-04T00:00:00Z,29.1015,-89.9782,0.0,6.662,129.0,,'11111222,11111222,99999999' 
WAVCIS,ioos:station:WAVCIS:CSI09:1,2009-05-04T01:00:00Z,29.1015,-89.9782,0.0,8.45,139.0,,'11111222,11111222,99999999' 
WAVCIS,ioos:station:WAVCIS:CSI09:1,2009-05-04T02:00:00Z,29.1015,-89.9782,0.0,8.55,146.0,,'11111222,11111222,99999999' 
WAVCIS,ioos:station:WAVCIS:CSI09:1,2009-05-04T03:00:00Z,29.1015,-89.9782,0.0,8.38,156.0,,'11111222,11111222,99999999' 
WAVCIS,ioos:station:WAVCIS:CSI09:1,2009-05-04T04:00:00Z,29.1015,-89.9782,0.0,8.84,161.0,,'11111222,11111222,99999999' 
WAVCIS,ioos:station:WAVCIS:CSI09:1,2009-05-04T05:00:00Z,29.1015,-89.9782,0.0,9.77,168.0,,'11111222,11111222,99999999' 
WAVCIS,ioos:station:WAVCIS:CSI09:1,2009-05-04T06:00:00Z,29.1015,-89.9782,0.0,9.06,175.0,,'11111222,11111222,99999999' 
WAVCIS,ioos:station:WAVCIS:CSI09:1,2009-05-04T07:00:00Z,29.1015,-89.9782,0.0,8.98,178.0,,'11111222,11111222,99999999' 
WAVCIS,ioos:station:WAVCIS:CSI09:1,2009-05-04T08:00:00Z,29.1015,-89.9782,0.0,4.533,197.0,,'11111222,11111222,99999999' 
WAVCIS,ioos:station:WAVCIS:CSI09:1,2009-05-04T09:00:00Z,29.1015,-89.9782,0.0,6.213,197.0,,'11111222,11111222,99999999' 
WAVCIS,ioos:station:WAVCIS:CSI09:1,2009-05-04T10:00:00Z,29.1015,-89.9782,0.0,5.16,200.0,,'11111222,11111222,99999999' 
WAVCIS,ioos:station:WAVCIS:CSI09:1,2009-05-04T11:00:00Z,29.1015,-89.9782,0.0,4.907,196.0,,'11111222,11111222,99999999' 
WAVCIS,ioos:station:WAVCIS:CSI09:1,2009-05-04T12:00:00Z,29.1015,-89.9782,0.0,4.508,202.0,,'11111222,11111222,99999999' 
WAVCIS,ioos:station:WAVCIS:CSI09:1,2009-05-04T13:00:00Z,29.1015,-89.9782,0.0,3.652,205.0,,'11111222,11111222,99999999' 
WAVCIS,ioos:station:WAVCIS:CSI09:1,2009-05-04T14:00:00Z,29.1015,-89.9782,0.0,6.342,225.0,,'11111222,11111222,99999999' 
WAVCIS,ioos:station:WAVCIS:CSI09:1,2009-05-04T15:00:00Z,29.1015,-89.9782,0.0,6.202,226.0,,'11111222,11111222,99999999' 
WAVCIS,ioos:station:WAVCIS:CSI09:1,2009-05-04T16:00:00Z,29.1015,-89.9782,0.0,3.234,204.0,,'11111222,11111222,99999999' 
WAVCIS,ioos:station:WAVCIS:CSI09:1,2009-05-04T17:00:00Z,29.1015,-89.9782,0.0,4.879,229.0,,'11111222,11111222,99999999' 
WAVCIS,ioos:station:WAVCIS:CSI09:1,2009-05-04T18:00:00Z,29.1015,-89.9782,0.0,3.079,330.0,,'11111222,11111222,99999999' 
WAVCIS,ioos:station:WAVCIS:CSI09:1,2009-05-04T19:00:00Z,29.1015,-89.9782,0.0,1.619,140.0,,'11111222,11111222,99999999' 
WAVCIS,ioos:station:WAVCIS:CSI09:1,2009-05-04T20:00:00Z,29.1015,-89.9782,0.0,1.118,183.0,,'11111222,11111222,99999999' 
WAVCIS,ioos:station:WAVCIS:CSI09:1,2009-05-04T21:00:00Z,29.1015,-89.9782,0.0,2.691,209.0,,'11111222,11111222,99999999' 
WAVCIS,ioos:station:WAVCIS:CSI09:1,2009-05-04T22:00:00Z,29.1015,-89.9782,0.0,4.206,214.0,,'11111222,11111222,99999999' 
WAVCIS,ioos:station:WAVCIS:CSI09:1,2009-05-04T23:00:00Z,29.1015,-89.9782,0.0,5.374,222.0,,'11111222,11111222,99999999' 
WAVCIS,ioos:station:WAVCIS:CSI09:1,2009-05-05T00:00:00Z,29.1015,-89.9782,0.0,6.684,229.0,,'11111222,11111222,99999999' 
WAVCIS,ioos:station:WAVCIS:CSI09:1,2009-05-05T01:00:00Z,29.1015,-89.9782,0.0,3.331,208.0,,'11111222,11111222,99999999' 
WAVCIS,ioos:station:WAVCIS:CSI09:1,2009-05-05T02:00:00Z,29.1015,-89.9782,0.0,3.288,185.0,,'11111222,11111222,99999999' 
WAVCIS,ioos:station:WAVCIS:CSI09:1,2009-05-05T03:00:00Z,29.1015,-89.9782,0.0,3.864,179.0,,'11111222,11111222,99999999' 
WAVCIS,ioos:station:WAVCIS:CSI09:1,2009-05-05T04:00:00Z,29.1015,-89.9782,0.0,5.361,170.0,,'11111222,11111222,99999999' 
WAVCIS,ioos:station:WAVCIS:CSI09:1,2009-05-05T05:00:00Z,29.1015,-89.9782,0.0,5.569,169.0,,'11111222,11111222,99999999' 
WAVCIS,ioos:station:WAVCIS:CSI09:1,2009-05-05T06:00:00Z,29.1015,-89.9782,0.0,6.323,173.0,,'11111222,11111222,99999999' 
WAVCIS,ioos:station:WAVCIS:CSI09:1,2009-05-05T07:00:00Z,29.1015,-89.9782,0.0,3.409,187.0,,'11111222,11111222,99999999' 
WAVCIS,ioos:station:WAVCIS:CSI09:1,2009-05-05T08:00:00Z,29.1015,-89.9782,0.0,3.619,180.0,,'11111222,11111222,99999999' 
WAVCIS,ioos:station:WAVCIS:CSI09:1,2009-05-05T09:00:00Z,29.1015,-89.9782,0.0,4.042,183.0,,'11111222,11111222,99999999' 
WAVCIS,ioos:station:WAVCIS:CSI09:1,2009-05-05T10:00:00Z,29.1015,-89.9782,0.0,4.565,178.0,,'11111222,11111222,99999999' 
WAVCIS,ioos:station:WAVCIS:CSI09:1,2009-05-05T11:00:00Z,29.1015,-89.9782,0.0,6.717,175.0,,'11111222,11111222,99999999' 
WAVCIS,ioos:station:WAVCIS:CSI09:1,2009-05-05T12:00:00Z,29.1015,-89.9782,0.0,5.948,174.0,,'11111222,11111222,99999999' 
WAVCIS,ioos:station:WAVCIS:CSI09:1,2009-05-05T13:00:00Z,29.1015,-89.9782,0.0,4.339,179.0,,'11111222,11111222,99999999' 
WAVCIS,ioos:station:WAVCIS:CSI09:1,2009-05-05T14:00:00Z,29.1015,-89.9782,0.0,5.828,174.0,,'11111222,11111222,99999999' 
WAVCIS,ioos:station:WAVCIS:CSI09:1,2009-05-05T15:00:00Z,29.1015,-89.9782,0.0,4.198,179.0,,'11111222,11111222,99999999' 
WAVCIS,ioos:station:WAVCIS:CSI09:1,2009-05-05T16:00:00Z,29.1015,-89.9782,0.0,4.13,179.0,,'11111222,11111222,99999999' 
WAVCIS,ioos:station:WAVCIS:CSI09:1,2009-05-05T17:00:00Z,29.1015,-89.9782,0.0,4.02,176.0,,'11111222,11111222,99999999' 
WAVCIS,ioos:station:WAVCIS:CSI09:1,2009-05-05T18:00:00Z,29.1015,-89.9782,0.0,3.744,174.0,,'11111222,11111222,99999999' 
WAVCIS,ioos:station:WAVCIS:CSI09:1,2009-05-05T19:00:00Z,29.1015,-89.9782,0.0,3.209,168.0,,'11111222,11111222,99999999' 
WAVCIS,ioos:station:WAVCIS:CSI09:1,2009-05-05T20:00:00Z,29.1015,-89.9782,0.0,4.426,166.0,,'11111222,11111222,99999999' 
WAVCIS,ioos:station:WAVCIS:CSI09:1,2009-05-05T21:00:00Z,29.1015,-89.9782,0.0,4.289,172.0,,'11111222,11111222,99999999' 
WAVCIS,ioos:station:WAVCIS:CSI09:1,2009-05-05T22:00:00Z,29.1015,-89.9782,0.0,4.511,177.0,,'11111222,11111222,99999999' 
WAVCIS,ioos:station:WAVCIS:CSI09:1,2009-05-05T23:00:00Z,29.1015,-89.9782,0.0,5.287,168.0,,'11111222,11111222,99999999' 
WAVCIS,ioos:station:WAVCIS:CSI09:1,2009-05-06T00:00:00Z,29.1015,-89.9782,0.0,5.384,163.0,,'11111222,11111222,99999999' 
WAVCIS,ioos:station:WAVCIS:CSI09:1,2009-05-06T01:00:00Z,29.1015,-89.9782,0.0,5.97,155.0,,'11111222,11111222,99999999' 
WAVCIS,ioos:station:WAVCIS:CSI09:1,2009-05-06T02:00:00Z,29.1015,-89.9782,0.0,5.936,154.0,,'11111222,11111222,99999999' 
WAVCIS,ioos:station:WAVCIS:CSI09:1,2009-05-06T03:00:00Z,29.1015,-89.9782,0.0,7.62,156.0,,'11111222,11111222,99999999' 
WAVCIS,ioos:station:WAVCIS:CSI09:1,2009-05-06T04:00:00Z,29.1015,-89.9782,0.0,9.38,149.0,,'11111222,11111222,99999999' 
WAVCIS,ioos:station:WAVCIS:CSI09:1,2009-05-06T05:00:00Z,29.1015,-89.9782,0.0,10.13,160.0,,'11111222,11111222,99999999' 
WAVCIS,ioos:station:WAVCIS:CSI09:1,2009-05-06T06:00:00Z,29.1015,-89.9782,0.0,10.74,164.0,,'11111222,11111222,99999999' 
WAVCIS,ioos:station:WAVCIS:CSI09:1,2009-05-06T07:00:00Z,29.1015,-89.9782,0.0,10.81,166.0,,'11111222,11111222,99999999' 
WAVCIS,ioos:station:WAVCIS:CSI09:1,2009-05-06T08:00:00Z,29.1015,-89.9782,0.0,11.22,169.0,,'11111222,11111222,99999999' 
WAVCIS,ioos:station:WAVCIS:CSI09:1,2009-05-06T09:00:00Z,29.1015,-89.9782,0.0,11.08,168.0,,'11111222,11111222,99999999' 
WAVCIS,ioos:station:WAVCIS:CSI09:1,2009-05-06T10:00:00Z,29.1015,-89.9782,0.0,9.9,171.0,,'11111222,11111222,99999999' 
WAVCIS,ioos:station:WAVCIS:CSI09:1,2009-05-06T11:00:00Z,29.1015,-89.9782,0.0,9.45,170.0,,'11111222,11111222,99999999' 
WAVCIS,ioos:station:WAVCIS:CSI09:1,2009-05-06T12:00:00Z,29.1015,-89.9782,0.0,10.32,172.0,,'11111222,11111222,99999999' 
WAVCIS,ioos:station:WAVCIS:CSI09:1,2009-05-06T13:00:00Z,29.1015,-89.9782,0.0,8.71,174.0,,'11111222,11111222,99999999' 
WAVCIS,ioos:station:WAVCIS:CSI09:1,2009-05-06T14:00:00Z,29.1015,-89.9782,0.0,8.61,175.0,,'11111222,11111222,99999999' 
WAVCIS,ioos:station:WAVCIS:CSI09:1,2009-05-06T15:00:00Z,29.1015,-89.9782,0.0,7.7,174.0,,'11111222,11111222,99999999' 
WAVCIS,ioos:station:WAVCIS:CSI09:1,2009-05-06T16:00:00Z,29.1015,-89.9782,0.0,7.1,172.0,,'11111222,11111222,99999999' 
WAVCIS,ioos:station:WAVCIS:CSI09:1,2009-05-06T17:00:00Z,29.1015,-89.9782,0.0,8.01,169.0,,'11111222,11111222,99999999' 
WAVCIS,ioos:station:WAVCIS:CSI09:1,2009-05-06T18:00:00Z,29.1015,-89.9782,0.0,8.05,171.0,,'11111222,11111222,99999999' 
WAVCIS,ioos:station:WAVCIS:CSI09:1,2009-05-06T19:00:00Z,29.1015,-89.9782,0.0,7.63,171.0,,'11111222,11111222,99999999' 
WAVCIS,ioos:station:WAVCIS:CSI09:1,2009-05-06T20:00:00Z,29.1015,-89.9782,0.0,6.325,171.0,,'11111222,11111222,99999999' 
WAVCIS,ioos:station:WAVCIS:CSI09:1,2009-05-06T21:00:00Z,29.1015,-89.9782,0.0,4.652,167.0,,'11111222,11111222,99999999' 
WAVCIS,ioos:station:WAVCIS:CSI09:1,2009-05-06T22:00:00Z,29.1015,-89.9782,0.0,4.682,162.0,,'11111222,11111222,99999999' 
WAVCIS,ioos:station:WAVCIS:CSI09:1,2009-05-06T23:00:00Z,29.1015,-89.9782,0.0,4.165,155.0,,'11111222,11111222,99999999' 
WAVCIS,ioos:station:WAVCIS:CSI09:1,2009-05-07T00:00:00Z,29.1015,-89.9782,0.0,6.278,160.0,,'11111222,11111222,99999999' 
WAVCIS,ioos:station:WAVCIS:CSI09:1,2009-05-07T01:00:00Z,29.1015,-89.9782,0.0,7.67,155.0,,'11111222,11111222,99999999' 
WAVCIS,ioos:station:WAVCIS:CSI09:1,2009-05-07T02:00:00Z,29.1015,-89.9782,0.0,8.42,163.0,,'11111222,11111222,99999999' 
WAVCIS,ioos:station:WAVCIS:CSI09:1,2009-05-07T03:00:00Z,29.1015,-89.9782,0.0,9.08,165.0,,'11111222,11111222,99999999' 
WAVCIS,ioos:station:WAVCIS:CSI09:1,2009-05-07T04:00:00Z,29.1015,-89.9782,0.0,8.84,172.0,,'11111222,11111222,99999999' 
WAVCIS,ioos:station:WAVCIS:CSI09:1,2009-05-07T05:00:00Z,29.1015,-89.9782,0.0,8.02,171.0,,'11111222,11111222,99999999' 
WAVCIS,ioos:station:WAVCIS:CSI09:1,2009-05-07T06:00:00Z,29.1015,-89.9782,0.0,8.63,174.0,,'11111222,11111222,99999999' 
WAVCIS,ioos:station:WAVCIS:CSI09:1,2009-05-07T07:00:00Z,29.1015,-89.9782,0.0,6.845,174.0,,'11111222,11111222,99999999' 
WAVCIS,ioos:station:WAVCIS:CSI09:1,2009-05-07T08:00:00Z,29.1015,-89.9782,0.0,8.56,175.0,,'11111222,11111222,99999999' 
WAVCIS,ioos:station:WAVCIS:CSI09:1,2009-05-07T09:00:00Z,29.1015,-89.9782,0.0,4.654,183.0,,'11111222,11111222,99999999' 
WAVCIS,ioos:station:WAVCIS:CSI09:1,2009-05-07T10:00:00Z,29.1015,-89.9782,0.0,3.393,187.0,,'11111222,11111222,99999999' 
WAVCIS,ioos:station:WAVCIS:CSI09:1,2009-05-07T11:00:00Z,29.1015,-89.9782,0.0,2.904,191.0,,'11111222,11111222,99999999' 
WAVCIS,ioos:station:WAVCIS:CSI09:1,2009-05-07T12:00:00Z,29.1015,-89.9782,0.0,2.661,211.0,,'11111222,11111222,99999999' 
WAVCIS,ioos:station:WAVCIS:CSI09:1,2009-05-07T13:00:00Z,29.1015,-89.9782,0.0,2.948,196.0,,'11111222,11111222,99999999' 
WAVCIS,ioos:station:WAVCIS:CSI09:1,2009-05-07T14:00:00Z,29.1015,-89.9782,0.0,5.331,175.0,,'11111222,11111222,99999999' 
WAVCIS,ioos:station:WAVCIS:CSI09:1,2009-05-07T15:00:00Z,29.1015,-89.9782,0.0,5.641,176.0,,'11111222,11111222,99999999' 
WAVCIS,ioos:station:WAVCIS:CSI09:1,2009-05-07T16:00:00Z,29.1015,-89.9782,0.0,4.759,181.0,,'11111222,11111222,99999999' 
WAVCIS,ioos:station:WAVCIS:CSI09:1,2009-05-07T17:00:00Z,29.1015,-89.9782,0.0,6.24,174.0,,'11111222,11111222,99999999' 
WAVCIS,ioos:station:WAVCIS:CSI09:1,2009-05-07T18:00:00Z,29.1015,-89.9782,0.0,5.267,179.0,,'11111222,11111222,99999999' 
WAVCIS,ioos:station:WAVCIS:CSI09:1,2009-05-07T19:00:00Z,29.1015,-89.9782,0.0,6.964,174.0,,'11111222,11111222,99999999' 
WAVCIS,ioos:station:WAVCIS:CSI09:1,2009-05-07T20:00:00Z,29.1015,-89.9782,0.0,6.968,177.0,,'11111222,11111222,99999999' 
WAVCIS,ioos:station:WAVCIS:CSI09:1,2009-05-07T21:00:00Z,29.1015,-89.9782,0.0,5.914,180.0,,'11111222,11111222,99999999' 
WAVCIS,ioos:station:WAVCIS:CSI09:1,2009-05-07T22:00:00Z,29.1015,-89.9782,0.0,4.421,192.0,,'11111222,11111222,99999999' 
WAVCIS,ioos:station:WAVCIS:CSI09:1,2009-05-07T23:00:00Z,29.1015,-89.9782,0.0,4.11,190.0,,'11111222,11111222,99999999' 
WAVCIS,ioos:station:WAVCIS:CSI09:1,2009-05-08T00:00:00Z,29.1015,-89.9782,0.0,4.863,183.0,,'11111222,11111222,99999999' 
WAVCIS,ioos:station:WAVCIS:CSI09:1,2009-05-08T01:00:00Z,29.1015,-89.9782,0.0,7.03,175.0,,'11111222,11111222,99999999' 
WAVCIS,ioos:station:WAVCIS:CSI09:1,2009-05-08T02:00:00Z,29.1015,-89.9782,0.0,6.958,175.0,,'11111222,11111222,99999999' 
WAVCIS,ioos:station:WAVCIS:CSI09:1,2009-05-08T03:00:00Z,29.1015,-89.9782,0.0,6.189,169.0,,'11111222,11111222,99999999' 
WAVCIS,ioos:station:WAVCIS:CSI09:1,2009-05-08T04:00:00Z,29.1015,-89.9782,0.0,6.121,170.0,,'11111222,11111222,99999999' 
WAVCIS,ioos:station:WAVCIS:CSI09:1,2009-05-08T05:00:00Z,29.1015,-89.9782,0.0,7.05,169.0,,'11111222,11111222,99999999' 
WAVCIS,ioos:station:WAVCIS:CSI09:1,2009-05-08T06:00:00Z,29.1015,-89.9782,0.0,7.33,172.0,,'11111222,11111222,99999999' 
WAVCIS,ioos:station:WAVCIS:CSI09:1,2009-05-08T07:00:00Z,29.1015,-89.9782,0.0,7.03,177.0,,'11111222,11111222,99999999' 
WAVCIS,ioos:station:WAVCIS:CSI09:1,2009-05-08T08:00:00Z,29.1015,-89.9782,0.0,8.25,176.0,,'11111222,11111222,99999999' 
WAVCIS,ioos:station:WAVCIS:CSI09:1,2009-05-08T09:00:00Z,29.1015,-89.9782,0.0,5.311,188.0,,'11111222,11111222,99999999' 
WAVCIS,ioos:station:WAVCIS:CSI09:1,2009-05-08T10:00:00Z,29.1015,-89.9782,0.0,5.595,187.0,,'11111222,11111222,99999999' 
WAVCIS,ioos:station:WAVCIS:CSI09:1,2009-05-08T11:00:00Z,29.1015,-89.9782,0.0,8.01,179.0,,'11111222,11111222,99999999' 
WAVCIS,ioos:station:WAVCIS:CSI09:1,2009-05-08T12:00:00Z,29.1015,-89.9782,0.0,9.0,175.0,,'11111222,11111222,99999999' 
WAVCIS,ioos:station:WAVCIS:CSI09:1,2009-05-08T13:00:00Z,29.1015,-89.9782,0.0,9.02,172.0,,'11111222,11111222,99999999' 
WAVCIS,ioos:station:WAVCIS:CSI09:1,2009-05-08T14:00:00Z,29.1015,-89.9782,0.0,10.24,171.0,,'11111222,11111222,99999999' 
WAVCIS,ioos:station:WAVCIS:CSI09:1,2009-05-08T15:00:00Z,29.1015,-89.9782,0.0,10.38,172.0,,'11111222,11111222,99999999' 
WAVCIS,ioos:station:WAVCIS:CSI09:1,2009-05-08T16:00:00Z,29.1015,-89.9782,0.0,9.68,179.0,,'11111222,11111222,99999999' 
WAVCIS,ioos:station:WAVCIS:CSI09:1,2009-05-08T17:00:00Z,29.1015,-89.9782,0.0,6.006,189.0,,'11111222,11111222,99999999' 
WAVCIS,ioos:station:WAVCIS:CSI09:1,2009-05-08T18:00:00Z,29.1015,-89.9782,0.0,6.358,176.0,,'11111222,11111222,99999999' 
WAVCIS,ioos:station:WAVCIS:CSI09:1,2009-05-08T19:00:00Z,29.1015,-89.9782,0.0,7.16,176.0,,'11111222,11111222,99999999' 
WAVCIS,ioos:station:WAVCIS:CSI09:1,2009-05-08T20:00:00Z,29.1015,-89.9782,0.0,7.51,173.0,,'11111222,11111222,99999999' 
WAVCIS,ioos:station:WAVCIS:CSI09:1,2009-05-08T21:00:00Z,29.1015,-89.9782,0.0,8.5,175.0,,'11111222,11111222,99999999' 
WAVCIS,ioos:station:WAVCIS:CSI09:1,2009-05-08T22:00:00Z,29.1015,-89.9782,0.0,8.06,171.0,,'11111222,11111222,99999999' 
WAVCIS,ioos:station:WAVCIS:CSI09:1,2009-05-08T23:00:00Z,29.1015,-89.9782,0.0,7.83,165.0,,'11111222,11111222,99999999' 
WAVCIS,ioos:station:WAVCIS:CSI09:1,2009-05-09T00:00:00Z,29.1015,-89.9782,0.0,8.13,166.0,,'11111222,11111222,99999999' 
WAVCIS,ioos:station:WAVCIS:CSI09:1,2009-05-09T01:00:00Z,29.1015,-89.9782,0.0,8.69,168.0,,'11111222,11111222,99999999' 
WAVCIS,ioos:station:WAVCIS:CSI09:1,2009-05-09T02:00:00Z,29.1015,-89.9782,0.0,8.48,166.0,,'11111222,11111222,99999999' 
WAVCIS,ioos:station:WAVCIS:CSI09:1,2009-05-09T03:00:00Z,29.1015,-89.9782,0.0,8.75,168.0,,'11111222,11111222,99999999' 
WAVCIS,ioos:station:WAVCIS:CSI09:1,2009-05-09T04:00:00Z,29.1015,-89.9782,0.0,9.84,168.0,,'11111222,11111222,99999999' 
WAVCIS,ioos:station:WAVCIS:CSI09:1,2009-05-09T05:00:00Z,29.1015,-89.9782,0.0,9.33,169.0,,'11111222,11111222,99999999' 
WAVCIS,ioos:station:WAVCIS:CSI09:1,2009-05-09T06:00:00Z,29.1015,-89.9782,0.0,9.13,170.0,,'11111222,11111222,99999999' 